OpenBCM V1.13 (Linux)

Packet Radio Mailbox

DB0FHN

[JN59NK Nuernberg]

 Login: GUEST





  
I0OJJ  > KEPS     21.03.25 02:32l 328 Lines 15599 Bytes #999 (0) @ AMSAT
BID : ORB25080.1
Read: DJ6UX GUEST
Subj: 2Line Orbital Elements 25080.AMSAT
Path: DB0FHN<DB0FFL<OE5XBL<OE6XPE<DB0ERF<IZ3LSV<I0OJJ
Sent: 250321/0025z @:I0OJJ.ITA.EU [Rome] obcm1.08-6-g5b69
From: I0OJJ @ I0OJJ.ITA.EU (Gustavo)
To:   KEPS @ AMSAT
X-Info: This message was generated automatically


QST de W1STR

AMSAT Orbital Elements for Amateur Satellites in TLE Format
From Orbital Analysis Office
New England Sci-Tech STEM Education Center
Natick, MA March 21, 2025
To all radio amateurs


These element sets describe the orbits of various satellites 
in use by the amateur radio community. For details see:
www.amsat.org/keplerian-elements-formats/

A daily update of element sets is available at:
www.amsat.org/tle/daily-bulletin.txt
or without bulletin text:
www.amsat.org/tle/dailytle.txt


AO-07
1 07530U 74089B   25079.66391936 -.00000029  00000-0  10683-3 0  9992
2 07530 101.9956  83.0618 0011882 276.7586 205.2106 12.53687287303927
UO-11
1 14781U 84021B   25079.50201432  .00004687  00000-0  50435-3 0  9991
2 14781  97.7456  47.5390 0006303 238.6172 121.4429 14.88953751189574
AO-27
1 22825U 93061C   25079.72644262  .00000412  00000-0  17470-3 0  9993
2 22825  98.7465 140.8456 0008194 357.7113   2.4030 14.30754000642428
FO-29
1 24278U 96046B   25079.71865624  .00000034  00000-0  70412-4 0  9995
2 24278  98.5840 344.2266 0349740 191.9065 167.3646 13.53241076412084
NOAA-15
1 25338U 98030A   25079.82356030  .00000553  00000-0  24521-3 0  9991
2 25338  98.5446 106.8673 0009395 231.2174 128.8168 14.26915554396886
GO-32
1 25397U 98043D   25079.90514794  .00000404  00000-0  19531-3 0  9992
2 25397  98.9635  57.3726 0002350  84.0799 276.0647 14.24277014387029
ISS
1 25544U 98067A   25079.87039369  .00025857  00000-0  46420-3 0  9994
2 25544  51.6376  24.4522 0004096  32.2846  63.8107 15.49709175501462
NO-44
1 26931U 01043C   25079.75079009  .00000682  00000-0  28646-3 0  9994
2 26931  67.0526 336.8176 0005637 267.4062  92.6394 14.31663712225692
SO-50
1 27607U 02058C   25079.41274361  .00004996  00000-0  64622-3 0  9999
2 27607  64.5533  91.0150 0046977 353.7654   6.2860 14.81178577197202
CO-55
1 27844U 03031E   25079.52168775  .00001176  00000-0  53227-3 0  9993
2 27844  98.6796  88.8341 0010771  66.1589 294.0717 14.23884397127105
CO-57
1 27848U 03031J   25078.94045790  .00001003  00000-0  46242-3 0  9991
2 27848  98.6822  88.3268 0010770  82.8183 277.4220 14.23234033126756
RS-22
1 27939U 03042A   25079.87305008  .00004213  00000-0  67910-3 0  9999
2 27939  98.3199 247.4209 0010507 264.5999 229.8389 14.71980429148959
NOAA-18
1 28654U 05018A   25079.78948115  .00000550  00000-0  31502-3 0  9999
2 28654  98.8456 160.1678 0013944   3.3593 356.7670 14.13548570 22332
CO-58
1 28895U 05043F   25079.35827137  .00006858  00000-0  11371-2 0  9995
2 28895  98.2354 222.7766 0014672 200.7085 159.3528 14.70478878 35004
CO-65
1 32785U 08021C   25079.89665059  .00014123  00000-0  10505-2 0  9991
2 32785  97.7788  50.5733 0012711 116.8890 243.3636 15.03020565917024
AAUSAT2
1 32788U 08021F   25079.51405041  .00202010  00000-0  26657-2 0  9995
2 32788  97.6070  73.1920 0004403 120.8221 239.3467 15.57688639920742
CO-66
1 32791U 08021J   25079.46310349  .00028211  00000-0  14848-2 0  9997
2 32791  97.7237  57.8855 0007260  89.2692 270.9372 15.15572977918274
RS-30
1 32953U 08025A   25079.84225571  .00000023  00000-0  95904-4 0  9990
2 32953  82.4976 277.4037 0018928 220.1117 139.8567 12.43160327763501
NOAA-19
1 33591U 09005A   25079.85349933  .00000490  00000-0  28502-3 0  9995
2 33591  99.0060 144.0788 0013140 228.6316 131.3726 14.13315240830701
SRMSAT
1 37841U 11058D   25079.86342309  .00000796  00000-0  28922-3 0  9994
2 37841  19.9721 282.9905 0011692 257.1872 182.7355 14.11389763693912
ZACUBE-1
1 39417U 13066B   25079.39438657  .00016169  00000-0  14395-2 0  9995
2 39417  97.7711  36.9445 0044327 325.6022  34.2331 14.95366906612777
Delfi-N3xt
1 39428U 13066N   25079.30933231  .00020519  00000-0  21640-2 0  9991
2 39428  97.8356 357.9606 0085382 268.0940  91.0495 14.86639719606999
GOMX-1
1 39430U 13066Q   25079.82090680  .00005783  00000-0  90450-3 0  9995
2 39430  97.6951 303.4127 0135071  90.8391 270.8293 14.67121263603569
LO-74
1 39440U 13066AA  25079.39218052  .00014297  00000-0  14734-2 0  9993
2 39440  97.8425  24.6082 0065660  87.8145 273.0588 14.88731061609350
AO-73
1 39444U 13066AE  25079.44761378  .00018951  00000-0  14847-2 0  9993
2 39444  97.7622  41.2333 0039562 302.4001  57.3398 15.00416784611414
DTUSAT-2
1 40030U 14033W   25079.57937969  .00018458  00000-0  12532-2 0  9997
2 40030  98.0488  47.6158 0008888 348.8347  11.2681 15.06420634584193
EO-80
1 40032U 14033Y   25079.53731102  .00017052  00000-0  11561-2 0  9996
2 40032  98.0362  47.3388 0006605 277.5272  82.5203 15.06506639584166
LILACSAT-2
1 40908U 15049K   25079.85630944  .00024974  00000-0  70690-3 0  9993
2 40908  97.5146  98.3614 0011980  91.7609 268.5007 15.36214143525827
IO-86
1 40931U 15052B   25038.81889873  .00001817  00000-0  15548-3 0  9993
2 40931   6.0001 108.1159 0012838 187.7041 172.2889 14.78568669506492
Horyu-4
1 41340U 16012D   25078.98785622  .00048587  00000-0  15225-2 0  9990
2 41340  30.9973 318.8413 0008555 300.0244  59.9551 15.31812950500249
Lapan A3
1 41603U 16040E   25079.83345640  .00008376  00000-0  29957-3 0  9990
2 41603  97.1405  87.6434 0010857 187.1117 172.9971 15.28981928485445
CAS-2T
1 41847U 16066G   25079.29733109  .00004297  00000-0  61618-3 0  9997
2 41847  98.4251 154.4599 0348215  64.4676 299.2088 14.43180099439292
CAS-4B
1 42759U 17034B   25079.87965843  .00085722  00000-0  13843-2 0  9990
2 42759  43.0101  78.9885 0015995  86.4036 273.8654 15.51759388430014
CAS-4A
1 42761U 17034D   25079.44688767  .00088625  00000-0  14018-2 0  9993
2 42761  43.0138  79.3198 0017282  89.2705 271.0136 15.52297130429953
TechnoSat
1 42829U 17042E   25079.46775660  .00009447  00000-0  74601-3 0  9998
2 42829  97.3910 252.0716 0012832 191.7513 168.3414 15.00828575418553
AO-91
1 43017U 17073E   25079.88669848  .00018378  00000-0  96483-3 0  9993
2 43017  97.5391 312.7401 0180629  81.2850 280.8787 15.02690923397083
S-Net D
1 43186U 18014G   25079.78894297  .00012680  00000-0  77155-3 0  9998
2 43186  97.5693 343.5556 0010677 133.6924 226.5192 15.10516533390170
S-Net B
1 43187U 18014H   25079.26338786  .00014850  00000-0  90319-3 0  9996
2 43187  97.5697 343.0036 0011403 131.9619 228.2584 15.10486228390095
S-Net A
1 43188U 18014J   25079.32588959  .00014453  00000-0  87865-3 0  9994
2 43188  97.5705 343.2051 0011394 132.3185 227.9012 15.10508916390100
S-Net C
1 43189U 18014K   25079.26561208  .00014904  00000-0  90618-3 0  9997
2 43189  97.5721 343.1456 0012957 126.8977 233.3442 15.10481580388641
Ten-Koh
1 43677U 18084G   25079.42954853  .00008973  00000-0  72756-3 0  9998
2 43677  98.0971 248.4477 0010482 175.8472 184.2839 14.99885231348075
PO-101
1 43678U 18084H   25079.90263280  .00007332  00000-0  63059-3 0  9993
2 43678  98.0997 252.9969 0008209 184.4711 175.6438 14.97690125348305
QO-100
1 43700U 18090A   25079.54600742  .00000151  00000-0  00000-0 0  9990
2 43700   0.0130 234.7076 0001595 163.0620   2.9479  1.00274906 23125
MinXSS-2
1 43758U 18099A   25079.24988268  .00038222  00000-0  16659-2 0  9990
2 43758  97.5109 145.1797 0013690  86.3014 273.9787 15.21997558344584
AO-95
1 43770U 18099N   25079.61117669  .00019388  00000-0  10391-2 0  9993
2 43770  97.5019 138.6626 0012710 131.1680 229.0651 15.14961496344289
RANGE-A
1 43773U 18099R   25079.54760872  .00012771  00000-0  83427-3 0  9998
2 43773  97.4595 130.3091 0013091 109.5262 250.7382 15.07884093344004
MOVE-II
1 43780U 18099Y   25079.72353610  .00129597  00000-0  23815-2 0  9993
2 43780  97.4743 150.9586 0002861 112.0547 248.1007 15.48749382345183
SNUSat 2
1 43782U 18099AA  25079.56853766  .00017384  00000-0  99295-3 0  9990
2 43782  97.4705 136.0104 0013681  78.0751 282.2013 15.12697325344246
SnugLite
1 43784U 18099AC  25079.12984539  .00023787  00000-0  12652-2 0  9992
2 43784  97.4520 134.9971 0005030  88.6470 271.5339 15.15245692344292
ITASat 1
1 43786U 18099AE  25079.75565683  .00016601  00000-0  98469-3 0  9996
2 43786  97.4676 135.9265 0016233 123.5917 236.6865 15.11312864344248
EAGLET 1
1 43790U 18099AJ  25079.09960889  .00013507  00000-0  88046-3 0  9997
2 43790  97.4872 135.4835 0013722 108.8921 251.3796 15.07942715343784
ESEO
1 43792U 18099AL  25079.61452832  .00005779  00000-0  44324-3 0  9994
2 43792  97.4596 130.2939 0012302  80.0395 280.2218 15.02119097343667
CSIM
1 43793U 18099AM  25079.76769057  .00130094  00000-0  23459-2 0  9995
2 43793  97.4932 153.0840 0004080  60.3107 299.8549 15.49285589345039
JO-97
1 43803U 18099AX  25079.46287443  .00023939  00000-0  11754-2 0  9992
2 43803  97.4764 139.3635 0008869  75.9664 284.2556 15.18038155344454
Suomi 100
1 43804U 18099AY  25079.62089677  .00020316  00000-0  10545-2 0  9993
2 43804  97.4835 139.0219 0014130  74.2546 286.0244 15.16068674344426
ISAT
1 43879U 18111D   25079.74902900  .00039105  00000-0  15442-2 0  9993
2 43879  97.5999 352.5812 0012167 115.1080 245.1422 15.25344241339332
UWE-4
1 43880U 18111E   25079.21020636  .00036702  00000-0  15876-2 0  9995
2 43880  97.5938 351.0280 0014905 128.2686 231.9893 15.22249601339234
Sparrow
1 43881U 18111F   25079.26574160  .00044849  00000-0  17207-2 0  9998
2 43881  97.6129 354.6763 0008826 146.0526 214.1278 15.26305192341368
Prox-1
1 44339U 19036A   25079.78546392  .00021055  00000-0  28526-2 0  9997
2 44339  23.9958 231.6420 0006259 227.4607 132.5361 14.77415222306138
SONATE
1 44400U 19038Q   25079.54682150  .00114517  00000-0  11353-2 0  9991
2 44400  97.7060  97.3884 0009664 169.4215 190.7249 15.65381900316791
Taurus 1
1 44530U 19059C   25079.73008519  .00017799  00000-0  33992-2 0  9997
2 44530  98.5955 215.4271 0009610 277.0502  82.9606 14.63957037292100
